Location: Newark
(44.3449°N, 4.8694°E)
Time: 14:12:57
(UTC+00:00)

Envisat - Pass Details

Date: 23 January 2020
Orbit: 764 x 766 km, 98.1° (Epoch: 28 February)

Event Time Altitude Azimuth Distance (km) Brightness Sun altitude
Rises 18:42:02 0° 207° (SSW) 3,220 6.7 -22.2°
Reaches altitude 10° 18:45:00 10° 225° (SW) 2,300 6.1 -22.7°
Maximum altitude 18:48:31 19° 269° (W) 1,778 5.8 -23.3°
Drops below altitude 10° 18:52:03 10° 313° (NW) 2,312 6.0 -24.0°
Sets 18:55:04 0° 332° (NNW) 3,243 6.6 -24.5°
